Weather History for Berlin, NH

Change the Weather History Date:

Tuesday, November 20, 2012

  Actual Average Record
Temperature  
Mean Temperature 29 °F -  
Max Temperature 48 °F 38 °F 55 °F (2001)
Min Temperature 10 °F 21 °F 8 °F (2007)
Degree Days  
Heating Degree Days 36    
Moisture  
Dew Point 17 °F    
Average Humidity 72    
Maximum Humidity 88    
Minimum Humidity 29    
Precipitation  
Precipitation 0.00 in - - ()
Sea Level Pressure  
Sea Level Pressure 30.24 in    
Wind  
Wind Speed 0 mph (West)    
Max Wind Speed 4 mph    
Max Gust Speed -    
Visibility 10 miles    
Events      
Averages and records for this station are not official NWS values.
T = Trace of Precipitation, MM = Missing Value Source: NWS Daily Summary

Daily Weather History Graph

Daily Weather History Graph

Search for Another Location

Airport:

Trip Planner

Search our weather history database for the weather conditions in past years. The results will help you decide how hot, cold, wet, or windy it might be!

Date:

Astronomy

Nov. 20, 2012 Rise Set
Actual Time 6:48 AM EST 4:12 PM EST
Civil Twilight 6:16 AM EST 4:44 PM EST
Nautical Twilight 5:40 AM EST 5:19 PM EST
Astronomical Twilight 5:06 AM EST 5:54 PM EST
Moon 12:12 PM EST (11/20) 11:50 PM EST (11/20)
Length of Visible Light 10h 27m
Length of Day
9h 23m
Waxing Crescent, 51% of the Moon is Illuminated
Nov 20
Waxing Crescent
Nov 28
Full
Dec 6
Last Quarter
Dec 13
New
Dec 20
First Quarter

Hourly Weather History & Observations

Time (EST) Temp. Dew Point Humidity Pressure Visibility Wind Dir Wind Speed Gust Speed Precip Events Conditions
12:52 AM 15.1 °F 12.0 °F 88% 30.31 in 10.0 mi Calm Calm - N/A   Clear
1:52 AM 12.9 °F 9.0 °F 84% 30.30 in 10.0 mi Calm Calm - N/A   Clear
3:52 AM 12.0 °F 9.0 °F 88% 30.29 in 10.0 mi Calm Calm - N/A   Clear
4:52 AM 12.0 °F 9.0 °F 88% 30.30 in 10.0 mi Calm Calm - N/A   Clear
5:52 AM 10.9 °F 7.0 °F 84% 30.29 in 10.0 mi Calm Calm - N/A   Clear
6:52 AM 12.0 °F 8.1 °F 84% 30.29 in 10.0 mi Calm Calm - N/A   Clear
7:52 AM 16.0 °F 12.9 °F 88% 30.30 in 7.0 mi Calm Calm - N/A   Clear
8:52 AM 23.0 °F 19.0 °F 85% 30.28 in 8.0 mi Calm Calm - N/A   Clear
9:52 AM 28.9 °F 23.0 °F 78% 30.26 in 10.0 mi Calm Calm - N/A   Clear
10:52 AM 37.0 °F 24.1 °F 59% 30.23 in 10.0 mi Calm Calm - N/A   Clear
12:52 PM 46.9 °F 21.9 °F 37% 30.18 in 10.0 mi Calm Calm - N/A   Clear
1:52 PM 48.0 °F 18.0 °F 30% 30.17 in 10.0 mi West 3.5 mph - N/A   Clear
2:52 PM 48.0 °F 17.1 °F 29% 30.17 in 10.0 mi Calm Calm - N/A   Clear
3:52 PM 37.9 °F 23.0 °F 55% 30.18 in 10.0 mi Calm Calm - N/A   Clear
4:52 PM 28.9 °F 19.9 °F 69% 30.19 in 10.0 mi Calm Calm - N/A   Clear
6:52 PM 27.0 °F 21.0 °F 78% 30.22 in 10.0 mi Calm Calm - N/A   Clear
7:52 PM 28.0 °F 21.9 °F 78% 30.23 in 10.0 mi Calm Calm - N/A   Partly Cloudy
8:52 PM 28.9 °F 21.9 °F 75% 30.22 in 10.0 mi Calm Calm - N/A   Clear
9:52 PM 28.0 °F 21.9 °F 78% 30.22 in 10.0 mi Calm Calm - N/A   Partly Cloudy
10:52 PM 28.0 °F 23.0 °F 81% 30.22 in 10.0 mi Calm Calm - N/A   Clear
11:52 PM 28.0 °F 23.0 °F 81% 30.22 in 10.0 mi Calm Calm - N/A   Mostly Cloudy